Weather reports worldwide

Advertisment
Pembrey Sands, United Kingdom (3605): temperature & dewpoint: 14.06.2019 05:00:00 - 20.06.2019 05:00:00 (BST)Pembrey Sands, United Kingdom (3605): wind speed & gusts: 14.06.2019 05:00:00 - 20.06.2019 05:00:00 (BST)Pembrey Sands, United Kingdom (3605): wind direction: 14.06.2019 05:00:00 - 20.06.2019 05:00:00 (BST)Pembrey Sands, United Kingdom (3605): reduced air pressure: 14.06.2019 05:00:00 - 20.06.2019 05:00:00 (BST)Pembrey Sands, United Kingdom (3605): visibility: 14.06.2019 05:00:00 - 20.06.2019 05:00:00 (BST)Pembrey Sands, United Kingdom (3605): precipitation: 14.06.2019 05:00:00 - 20.06.2019 05:00:00 (BST)
Date & Time tt [°C] td [°C] ff [km/h] ff [kn] fx [km/h] fx [kn] dd ppp [hPa] vv [km] rr [mm]
20.06.2019 05:00:00 12,8 11,1 18 10 - - W 1011,4 30 0,0
20.06.2019 04:00:00 13,0 11,4 22 12 - - W 1011,2 27 0,0
20.06.2019 03:00:00 13,1 11,5 21 11 - - W 1011,2 22 0,0
20.06.2019 02:00:00 13,2 11,3 24 13 - - W 1011,3 27 0,0
20.06.2019 01:00:00 13,3 11,3 22 12 - - W 1011,4 28 0,0
20.06.2019 00:00:00 13,5 11,4 22 12 - - W 1011,4 30 0,0
19.06.2019 23:00:00 13,5 11,2 18 10 - - WSW 1011,3 26 0,0
19.06.2019 22:00:00 14,1 11,1 21 11 - - W 1011,1 27 0,0
19.06.2019 21:00:00 14,9 10,6 28 15 - - W 1010,7 24 0,0
19.06.2019 20:00:00 16,0 11,5 28 15 - - W 1010,2 22 0,0
19.06.2019 19:00:00 17,2 10,7 34 18 - - W 1009,8 30 0,0
19.06.2019 18:00:00 18,5 12,9 24 13 - - WSW 1009,3 35 0,0
19.06.2019 17:00:00 17,6 13,8 18 10 - - SW 1009,3 35 0,0
19.06.2019 16:00:00 16,5 13,7 26 14 - - WSW 1009,5 24 0,0
19.06.2019 15:00:00 16,1 13,3 28 15 - - WSW 1009,7 27 0,0
19.06.2019 14:00:00 16,4 13,2 26 14 - - WSW 1009,7 40 0,0
19.06.2019 13:00:00 16,3 12,8 21 11 - - SW 1009,7 45 0,0
19.06.2019 12:00:00 15,7 11,3 15 8 - - WSW 1009,5 50 0,0
19.06.2019 11:00:00 15,5 11,2 9 5 - - WNW 1009,4 5 0,0
19.06.2019 10:00:00 13,6 11,1 8 4 - - NW 1009,3 40 0,0
19.06.2019 09:00:00 13,3 12,0 9 5 - - NW 1009,3 24 0,0
19.06.2019 08:00:00 13,0 12,2 5 3 - - NNW 1009,2 25 0,0
19.06.2019 07:00:00 12,7 12,0 8 4 - - N 1009,2 14 0,4
19.06.2019 06:00:00 12,6 11,9 8 4 - - N 1009,2 5 0,0
19.06.2019 05:00:00 12,6 11,9 8 4 - - N 1009,2 17 0,2
19.06.2019 04:00:00 12,4 11,7 5 3 - - NNE 1009,1 13 0,0
19.06.2019 03:00:00 12,6 11,9 5 3 - - NNE 1009,4 7 0,0
19.06.2019 02:00:00 12,8 11,9 8 4 - - NNW 1009,9 10 0,0
19.06.2019 01:00:00 13,2 12,3 9 5 - - NNW 1010,3 15 0,2
19.06.2019 00:00:00 13,2 12,1 8 4 - - WNW 1011,1 18 0,0
18.06.2019 23:00:00 13,1 11,8 2 1 - - W 1011,4 17 0,2
18.06.2019 22:00:00 14,0 12,1 5 3 - - W 1011,7 19 0,0
18.06.2019 21:00:00 14,4 12,1 4 2 - - WSW 1011,6 18 0,0
18.06.2019 20:00:00 14,4 12,2 4 2 - - W 1011,9 19 0,0
18.06.2019 19:00:00 14,5 12,2 5 3 - - W 1012,0 26 0,0
18.06.2019 18:00:00 15,0 12,7 9 5 - - WSW 1012,3 27 0,0
18.06.2019 17:00:00 14,9 12,7 11 6 - - WSW 1012,5 27 0,2
18.06.2019 16:00:00 14,5 12,3 13 7 - - SW 1012,8 24 0,0
18.06.2019 15:00:00 15,5 12,2 11 6 - - SW 1013,1 40 0,0
18.06.2019 14:00:00 15,6 13,2 15 8 - - SSW 1013,5 30 0,0
18.06.2019 13:00:00 15,6 12,8 11 6 - - SW 1013,6 35 0,0
18.06.2019 12:00:00 15,1 12,9 18 10 - - S 1014,0 35 0,0
18.06.2019 11:00:00 15,1 12,9 21 11 - - S 1014,3 30 0,0
18.06.2019 10:00:00 14,5 12,8 21 11 - - S 1014,5 18 0,0
18.06.2019 09:00:00 14,3 13,0 13 7 - - S 1014,4 14 0,0
18.06.2019 08:00:00 14,4 13,3 13 7 - - SSW 1014,4 14 0,0
18.06.2019 07:00:00 13,6 12,5 13 7 - - SSW 1014,5 18 0,0
18.06.2019 06:00:00 13,5 12,5 11 6 - - SSW 1014,6 15 0,0
18.06.2019 05:00:00 13,4 12,3 15 8 - - SSW 1014,7 20 0,0
18.06.2019 04:00:00 13,5 12,5 13 7 - - SSW 1014,8 24 0,0
18.06.2019 03:00:00 13,6 12,7 16 9 - - SSW 1015,2 22 0,0
18.06.2019 02:00:00 13,7 12,8 22 12 - - SSW 1015,5 21 0,0
18.06.2019 01:00:00 13,3 12,3 18 10 - - S 1015,7 21 0,0
18.06.2019 00:00:00 13,4 11,6 15 8 - - WSW 1015,9 50 0,0
17.06.2019 23:00:00 13,3 12,1 16 9 - - SW 1016,0 21 0,0
17.06.2019 22:00:00 13,8 12,7 22 12 - - SSW 1015,9 17 0,0
17.06.2019 21:00:00 13,8 12,4 21 11 - - SSW 1015,7 14 0,0
17.06.2019 20:00:00 13,2 12,0 18 10 - - W 1015,5 15 0,0
17.06.2019 19:00:00 13,5 12,5 22 12 - - SSW 1015,7 9 0,2
17.06.2019 18:00:00 13,1 11,9 24 13 - - WSW 1015,8 4,0 0,0
17.06.2019 17:00:00 13,6 12,7 26 14 - - WSW 1016,0 11 0,0
17.06.2019 16:00:00 14,3 13,3 28 15 - - SW 1015,9 2,2 0,0
17.06.2019 15:00:00 14,8 13,6 39 21 48 26 SW 1016,0 9 0,0
17.06.2019 14:00:00 15,4 14,0 41 22 48 26 SSW 1015,8 14 0,2
17.06.2019 13:00:00 14,1 13,5 35 19 46 25 SSW 1015,8 10 0,0
17.06.2019 12:00:00 14,0 13,5 39 21 46 25 SSW 1015,8 1,6 0,2
17.06.2019 11:00:00 13,6 13,2 22 12 - - SSW 1015,6 0,9 0,4
17.06.2019 10:00:00 12,8 12,3 28 15 - - SW 1015,5 1,9 1,0
17.06.2019 09:00:00 13,2 12,5 34 18 - - SSW 1015,2 12 0,0
17.06.2019 08:00:00 12,8 12,2 29 16 - - SSW 1015,0 3,0 0,2
17.06.2019 07:00:00 12,0 11,6 39 21 57 31 WSW 1014,9 3,7 2,8
17.06.2019 06:00:00 13,6 13,1 48 26 61 33 SSW 1014,3 1,2 0,0
17.06.2019 05:00:00 13,6 13,1 50 27 61 33 SSW 1014,1 2,3 0,4
17.06.2019 04:00:00 13,9 12,8 55 30 65 35 SSW 1014,0 1,3 0,2
17.06.2019 03:00:00 14,3 12,5 52 28 65 35 SSW 1014,1 11 0,0
17.06.2019 02:00:00 14,1 12,4 54 29 65 35 SSW 1014,4 13 0,0
17.06.2019 01:00:00 14,1 12,6 50 27 63 34 SSW 1014,3 12 0,0
17.06.2019 00:00:00 14,2 12,5 52 28 61 33 SSW 1014,3 11 0,0
16.06.2019 23:00:00 14,1 12,6 52 28 61 33 SSW 1014,4 12 0,0
16.06.2019 22:00:00 14,0 12,4 48 26 59 32 SSW 1014,3 12 0,0
16.06.2019 21:00:00 14,1 12,5 46 25 55 30 SSW 1014,2 11 0,0
16.06.2019 20:00:00 14,5 12,7 44 24 57 31 SSW 1014,2 7 0,0
16.06.2019 19:00:00 14,4 12,7 46 25 55 30 SSW 1013,9 9 0,0
16.06.2019 18:00:00 14,6 12,8 42 23 55 30 SSW 1013,9 9 0,0
16.06.2019 17:00:00 14,6 13,1 46 25 61 33 SSW 1014,2 9 0,0
16.06.2019 16:00:00 14,2 13,1 50 27 65 35 SSW 1014,3 8 0,0
16.06.2019 15:00:00 14,5 13,1 39 21 50 27 SSW 1014,3 14 0,2
16.06.2019 14:00:00 14,9 12,9 39 21 50 27 SSW 1014,5 8 0,0
16.06.2019 13:00:00 16,0 13,9 39 21 46 25 SSW 1014,2 16 0,0
16.06.2019 12:00:00 15,8 13,3 39 21 50 27 SSW 1013,7 17 0,0
16.06.2019 11:00:00 15,4 13,2 44 24 54 29 SSW 1012,9 16 0,0
16.06.2019 10:00:00 14,0 12,5 39 21 48 26 SSW 1012,6 18 0,0
16.06.2019 09:00:00 14,4 12,8 39 21 - - SSW 1012,5 14 0,0
16.06.2019 08:00:00 13,9 12,6 34 18 - - SSW 1012,1 12 0,0
16.06.2019 07:00:00 13,6 12,5 31 17 - - S 1011,5 11 0,0
16.06.2019 06:00:00 12,9 11,6 31 17 - - S 1011,5 12 0,0
16.06.2019 05:00:00 13,2 11,9 34 18 - - S 1011,7 13 0,0
16.06.2019 04:00:00 12,9 11,7 35 19 - - S 1011,8 18 0,0
16.06.2019 03:00:00 12,9 11,5 37 20 46 25 S 1012,1 20 1,0
16.06.2019 02:00:00 13,0 10,6 37 20 - - SSW 1012,4 30 0,0
16.06.2019 01:00:00 13,1 11,0 35 19 46 25 SSW 1012,6 30 0,0
16.06.2019 00:00:00 12,7 10,8 29 16 - - SSW 1012,6 26 0,0
15.06.2019 23:00:00 11,8 9,0 26 14 - - SSW 1012,5 45 0,4
15.06.2019 22:00:00 13,0 9,9 29 16 - - SSW 1012,3 40 0,0
15.06.2019 21:00:00 13,2 9,2 28 15 - - SSW 1012,0 35 0,0
15.06.2019 20:00:00 13,6 9,5 26 14 - - SW 1011,9 28 0,0
15.06.2019 19:00:00 14,2 9,4 29 16 - - SW 1011,9 25 0,0
15.06.2019 18:00:00 14,1 9,5 29 16 - - SW 1011,9 18 0,0
15.06.2019 17:00:00 14,5 9,3 34 18 - - SW 1011,7 21 0,0
15.06.2019 16:00:00 14,9 10,1 22 12 - - WSW 1011,3 26 0,6
15.06.2019 15:00:00 13,3 9,2 31 17 - - SW 1011,5 2,6 0,4
15.06.2019 14:00:00 14,9 9,9 31 17 - - SSW 1011,1 40 0,0
15.06.2019 13:00:00 15,0 11,3 35 19 - - SSW 1010,9 29 0,0
15.06.2019 12:00:00 14,3 9,1 24 13 - - SSW 1010,4 65 0,0
15.06.2019 11:00:00 14,2 9,2 15 8 - - SSW 1009,9 70 0,0
15.06.2019 10:00:00 14,0 9,6 18 10 - - SW 1009,7 55 0,0
15.06.2019 09:00:00 13,4 9,7 21 11 - - SW 1009,0 30 0,0
15.06.2019 08:00:00 12,7 8,9 24 13 - - WSW 1008,4 20 0,0
15.06.2019 07:00:00 12,0 9,9 31 17 - - WSW 1007,8 13 0,0
15.06.2019 06:00:00 11,8 10,9 26 14 74 40 SSW 1007,2 6 0,6
15.06.2019 05:00:00 12,4 11,4 52 28 68 37 S 1006,8 3,4 0,4
15.06.2019 04:00:00 12,4 10,8 44 24 61 33 S 1006,9 8 0,0
15.06.2019 03:00:00 12,4 10,4 44 24 55 30 S 1007,5 15 0,2
15.06.2019 02:00:00 12,2 10,2 46 25 55 30 S 1007,9 9 0,2
15.06.2019 01:00:00 12,8 9,8 39 21 50 27 S 1008,2 23 0,0
15.06.2019 00:00:00 13,1 10,2 42 23 48 26 S 1008,3 24 0,0
14.06.2019 23:00:00 13,3 9,9 34 18 - - S 1008,6 24 0,0
14.06.2019 22:00:00 13,4 9,6 31 17 - - S 1008,8 18 0,0
14.06.2019 21:00:00 13,4 10,1 31 17 - - SSW 1008,8 21 0,0
14.06.2019 20:00:00 13,6 10,1 31 17 - - SSW 1008,7 21 0,0
14.06.2019 19:00:00 13,8 10,4 29 16 - - SSW 1008,7 17 0,0
14.06.2019 18:00:00 13,6 10,9 34 18 - - SSW 1008,6 17 0,0
14.06.2019 17:00:00 13,6 10,8 31 17 - - SSW 1008,8 24 0,0
14.06.2019 16:00:00 14,3 11,3 24 13 - - SSW 1008,6 27 0,0
14.06.2019 15:00:00 14,5 11,3 28 15 - - SSW 1008,5 30 0,0
14.06.2019 14:00:00 14,0 11,1 24 13 - - SSW 1008,3 40 0,0
14.06.2019 13:00:00 13,7 11,0 28 15 - - S 1008,1 35 0,0
14.06.2019 12:00:00 13,4 10,9 28 15 - - S 1007,9 35 0,0
14.06.2019 11:00:00 13,8 11,4 26 14 - - S 1007,8 40 0,0
14.06.2019 10:00:00 12,4 10,6 28 15 - - S 1007,6 35 0,0
14.06.2019 09:00:00 12,1 10,1 22 12 - - SSW 1007,2 45 0,0
14.06.2019 08:00:00 11,2 10,2 8 4 - - S 1006,7 27 0,0
14.06.2019 07:00:00 10,6 9,8 9 5 - - W 1006,4 30 0,2
14.06.2019 06:00:00 9,9 9,2 4 2 - - W 1006,2 12 0,8
14.06.2019 05:00:00 9,9 9,2 11 6 - - WNW 1006,0 6 2,0

tt = temperature
td = dewpoint
ff = wind speed
fx = gusts
dd = wind direction
ppp = reduced air pressure
vv = visibility
rr = precipitation

Next stations